EW1760 Weather Reports


time (UTC)temp
C
wind
direction
speed
KPH
gust
KPH
rain 1hr
cm
rain 24hr
cm
rain mn
cm
humidity
%
barometer
mb
20260510220539 23 146 3.2 6.4 0.00 0.00 0.00 70 1011.4
20260510220036 22 155 1.6 4.8 0.00 0.00 0.00 72 1011.4
20260510215538 22 148 1.6 4.8 0.00 0.00 0.00 72 1011.5
20260510215035 23 150 3.2 4.8 0.00 0.00 0.00 73 1011.5
20260510214537 23 148 1.6 4.8 0.00 0.00 0.00 71 1011.5
20260510214035 23 150 3.2 4.8 0.00 0.00 0.00 69 1011.5
20260510213535 23 147 3.2 4.8 0.00 0.00 0.00 68 1011.5
20260510213038 23 127 3.2 6.4 0.00 0.00 0.00 69 1011.5
20260510212533 23 133 1.6 6.4 0.00 0.00 0.00 68 1011.4
20260510212038 23 146 3.2 6.4 0.00 0.00 0.00 69 1011.4
20260510211536 23 142 3.2 6.4 0.00 0.00 0.00 68 1011.5
20260510211034 23 159 3.2 9.7 0.00 0.00 0.00 67 1011.6
20260510210535 23 161 3.2 16.1 0.00 0.00 0.00 65 1011.4
20260510210034 23 165 9.7 16.1 0.00 0.00 0.00 66 1011.4
20260510205533 22 165 8.0 14.5 0.00 0.00 0.00 67 1011.3
20260510205036 22 130 9.7 20.9 0.00 0.00 0.00 68 1011.3
20260510204538 22 146 8.0 27.4 0.00 0.00 0.00 70 1011.2
20260510204034 22 155 19.3 27.4 0.00 0.00 0.00 70 1011.2
20260510203532 22 147 14.5 25.7 0.00 0.00 0.00 71 1011.3
20260510203031 22 140 17.7 25.7 0.00 0.00 0.00 71 1011.3
20260510202531 22 142 14.5 24.1 0.00 0.00 0.00 70 1011.3
20260510202032 22 161 16.1 24.1 0.00 0.00 0.00 71 1011.3
20260510201531 22 142 17.7 22.5 0.00 0.00 0.00 73 1011.5
20260510201029 22 147 12.9 22.5 0.00 0.00 0.00 69 1011.6
20260510200532 22 136 16.1 22.5 0.00 0.00 0.00 69 1011.6
20260510200053 22 151 12.9 20.9 0.00 0.00 0.00 70 1011.7
20260510195532 22 130 11.3 22.5 0.00 0.00 0.00 72 1011.6
20260510195027 22 138 17.7 22.5 0.00 0.00 0.00 72 1011.8
20260510194527 22 140 14.5 20.9 0.00 0.00 0.00 73 1011.9
20260510194030 22 142 16.1 20.9 0.00 0.00 0.00 74 1012.0
20260510193526 22 140 11.3 17.7 0.00 0.00 0.00 70 1012.1
20260510193038 22 160 8.0 17.7 0.00 0.00 0.00 70 1012.1
20260510192524 22 161 11.3 19.3 0.00 0.00 0.00 69 1012.3
20260510192023 22 158 11.3 19.3 0.00 0.00 0.00 69 1012.4
20260510191523 22 150 11.3 17.7 0.00 0.00 0.00 71 1012.4
20260510191023 22 160 9.7 22.5 0.00 0.00 0.00 73 1012.4
20260510190520 21 138 12.9 22.5 0.00 0.00 0.00 73 1012.5
20260510190025 22 154 16.1 20.9 0.00 0.00 0.00 74 1012.4
20260510185518 21 148 11.3 20.9 0.00 0.00 0.00 74 1012.5
20260510185017 22 140 12.9 20.9 0.00 0.00 0.00 75 1012.5
20260510184516 22 146 12.9 19.3 0.00 0.00 0.00 73 1012.5
20260510184016 23 143 11.3 16.1 0.00 0.00 0.00 70 1012.3
20260510183515 23 167 6.4 14.5 0.00 0.00 0.00 67 1012.3
20260510183030 23 152 9.7 14.5 0.00 0.00 0.00 69 1012.5
20260510182512 23 154 8.0 14.5 0.00 0.00 0.00 64 1012.5
20260510182014 23 147 9.7 14.5 0.00 0.00 0.00 63 1012.5
20260510181524 23 148 4.8 9.7 0.00 0.00 0.00 60 1012.6
20260510181009 23 158 6.4 16.1 0.00 0.00 0.00 64 1012.6
20260510180507 23 158 11.3 16.1 0.00 0.00 0.00 67 1012.6
20260510180008 22 153 9.7 14.5 0.00 0.00 0.00 63 1012.6
20260510175506 22 148 11.3 14.5 0.00 0.00 0.00 70 1012.6
20260510175011 22 149 9.7 12.9 0.00 0.00 0.00 64 1012.6
20260510174504 22 143 8.0 12.9 0.00 0.00 0.00 67 1012.7
20260510174006 22 139 9.7 12.9 0.00 0.00 0.00 69 1012.7
20260510173503 22 153 8.0 11.3 0.00 0.00 0.00 63 1012.7
20260510173001 22 153 6.4 12.9 0.00 0.00 0.00 67 1012.9
20260510172600 22 153 8.0 12.9 0.00 0.00 0.00 67 1012.9
20260510172100 22 156 9.7 12.9 0.00 0.00 0.00 72 1013.0
20260510171601 22 151 8.0 11.3 0.00 0.00 0.00 72 1013.1
20260510171059 22 152 8.0 11.3 0.00 0.00 0.00 70 1013.1
20260510170600 22 148 8.0 11.3 0.00 0.00 0.00 67 1013.1
20260510170108 22 146 9.7 11.3 0.00 0.00 0.00 70 1013.1
20260510165600 22 148 6.4 9.7 0.00 0.00 0.00 67 1013.2
20260510165058 22 140 4.8 9.7 0.00 0.00 0.00 68 1013.2
20260510164558 22 147 6.4 11.3 0.00 0.00 0.00 68 1013.1
20260510164058 22 163 4.8 11.3 0.00 0.00 0.00 61 1013.3
20260510163557 22 139 6.4 11.3 0.00 0.00 0.00 60 1013.3
20260510163057 22 142 6.4 11.3 0.00 0.00 0.00 61 1013.2
20260510162556 22 139 4.8 9.7 0.00 0.00 0.00 62 1013.2
20260510162527 22 121 6.4 9.7 0.00 0.00 0.00 62 1013.2
20260510162054 22 148 4.8 9.7 0.00 0.00 0.00 62 1013.3
20260510161553 22 161 4.8 8.0 0.00 0.00 0.00 61 1013.3
20260510161052 22 146 4.8 8.0 0.00 0.00 0.00 63 1013.4
20260510160550 21 146 4.8 9.7 0.00 0.00 0.00 65 1013.3
20260510160050 21 148 4.8 9.7 0.00 0.00 0.00 65 1013.5
20260510155552 21 157 6.4 9.7 0.00 0.00 0.00 65 1013.5
20260510155049 21 146 6.4 9.7 0.00 0.00 0.00 65 1013.4
20260510154546 20 153 4.8 9.7 0.00 0.00 0.00 65 1013.5
20260510154047 20 168 3.2 6.4 0.00 0.00 0.00 65 1013.5
20260510153543 20 164 3.2 4.8 0.00 0.00 0.00 68 1013.5
20260510153044 20 164 3.2 4.8 0.00 0.00 0.00 69 1013.5
20260510152542 20 164 1.6 3.2 0.00 0.00 0.00 70 1013.5
20260510152044 20 164 1.6 3.2 0.00 0.00 0.00 70 1013.6
20260510151544 20 164 0.0 3.2 0.00 0.00 0.00 71 1013.6
20260510151042 20 164 0.0 3.2 0.00 0.00 0.00 72 1013.6
20260510150540 20 164 0.0 3.2 0.00 0.00 0.00 70 1013.5
20260510150040 20 164 0.0 1.6 0.00 0.00 0.00 70 1013.5
20260510145537 19 164 0.0 4.8 0.00 0.00 0.00 74 1013.4
20260510145036 19 164 1.6 4.8 0.00 0.00 0.00 75 1013.4
20260510144536 18 164 3.2 4.8 0.00 0.00 0.00 75 1013.3
20260510144036 18 164 1.6 3.2 0.00 0.00 0.00 77 1013.4
20260510143535 18 164 1.6 4.8 0.00 0.00 0.00 78 1013.5
20260510143037 18 164 3.2 6.4 0.00 0.00 0.00 80 1013.5
20260510142534 18 164 3.2 6.4 0.00 0.00 0.00 80 1013.5
20260510142035 18 170 4.8 8.0 0.00 0.00 0.00 82 1013.5
20260510141535 17 171 3.2 8.0 0.00 0.00 0.00 84 1013.5
20260510141034 17 180 4.8 9.7 0.00 0.00 0.00 85 1013.5
20260510140532 17 184 4.8 9.7 0.00 0.00 0.00 87 1013.4
20260510140033 17 175 8.0 9.7 0.00 0.00 0.00 87 1013.3
20260510135533 17 175 6.4 8.0 0.00 0.00 0.00 87 1013.2
20260510135033 17 182 6.4 8.0 0.00 0.00 0.00 87 1013.3
20260510134533 17 180 4.8 6.4 0.00 0.00 0.00 88 1013.2
20260510134032 17 185 4.8 6.4 0.00 0.00 0.00 88 1013.1
20260510133532 17 191 4.8 6.4 0.00 0.00 0.00 88 1013.2
20260510133039 17 201 4.8 6.4 0.00 0.00 0.00 88 1013.2
20260510132532 17 228 4.8 6.4 0.00 0.00 0.00 88 1013.3
20260510132032 17 213 4.8 8.0 0.00 0.00 0.00 89 1013.3
20260510131531 17 205 6.4 8.0 0.00 0.00 0.00 88 1013.3
20260510131030 17 198 4.8 6.4 0.00 0.00 0.00 89 1013.2
20260510130530 17 202 4.8 6.4 0.00 0.00 0.00 89 1013.2
20260510130030 17 215 3.2 6.4 0.00 0.00 0.00 89 1013.2
20260510125530 17 221 4.8 6.4 0.00 0.00 0.00 89 1013.1
20260510125028 17 217 4.8 6.4 0.00 0.00 0.00 89 1013.1
20260510124528 17 225 4.8 6.4 0.00 0.00 0.00 88 1013.1
20260510124028 17 223 3.2 6.4 0.00 0.00 0.00 88 1013.1
20260510123530 17 221 3.2 6.4 0.00 0.00 0.00 88 1013.0
20260510123028 17 242 3.2 4.8 0.00 0.00 0.00 87 1013.0
20260510122530 17 251 1.6 4.8 0.00 0.00 0.00 87 1013.0
20260510122026 17 257 1.6 4.8 0.00 0.00 0.00 87 1012.9
20260510121526 16 238 3.2 4.8 0.00 0.00 0.00 88 1012.9
20260510121025 16 238 0.0 3.2 0.00 0.00 0.00 89 1012.8
20260510120524 16 355 0.0 1.6 0.00 0.00 0.00 89 1012.7
20260510120027 16 355 0.0 1.6 0.00 0.00 0.00 89 1012.6
20260510115523 16 355 0.0 1.6 0.00 0.00 0.00 89 1012.5
20260510115023 16 355 0.0 1.6 0.00 0.00 0.00 89 1012.5
20260510114525 16 355 0.0 1.6 0.00 0.00 0.00 89 1012.4
20260510114021 16 355 0.0 3.2 0.00 0.00 0.00 89 1012.4
20260510113521 16 355 0.0 3.2 0.00 0.00 0.00 89 1012.3
20260510113023 16 355 0.0 4.8 0.00 0.00 0.00 89 1012.3
20260510112520 16 355 3.2 4.8 0.00 0.00 0.00 89 1012.2
20260510112021 16 317 1.6 4.8 0.00 0.00 0.00 89 1012.2
20260510111519 16 284 1.6 4.8 0.00 0.00 0.00 90 1012.1
20260510111018 16 292 3.2 4.8 0.00 0.00 0.00 90 1012.0
20260510110522 16 290 3.2 4.8 0.00 0.00 0.00 90 1012.0
20260510110020 16 325 0.0 1.6 0.00 0.00 0.00 90 1012.0
20260510105516 16 325 0.0 3.2 0.00 0.00 0.00 90 1011.9
20260510105019 16 325 0.0 6.4 0.00 0.00 0.00 89 1011.8
20260510104514 16 321 1.6 9.7 0.00 0.00 0.00 90 1011.7
20260510104013 16 324 4.8 9.7 0.00 0.00 0.00 90 1011.6
20260510103512 16 338 6.4 12.9 0.00 0.00 0.00 90 1011.5
20260510103011 16 337 6.4 16.1 0.00 0.00 0.00 90 1011.4
20260510102511 16 339 11.3 16.1 0.00 0.00 0.00 90 1011.4
20260510102012 16 333 11.3 14.5 0.00 0.00 0.00 90 1011.3
20260510101509 16 344 9.7 14.5 0.00 0.00 0.00 90 1011.2
20260510101008 16 329 9.7 11.3 0.00 0.00 0.00 90 1011.2
20260510100507 16 337 6.4 11.3 0.00 0.00 0.00 90 1011.0
20260510100008 16 330 8.0 12.9 0.00 0.00 0.00 89 1011.0
20260510095505 16 333 8.0 12.9 0.00 0.00 0.00 89 1010.9
20260510095004 16 333 8.0 11.3 0.00 0.00 0.00 89 1010.9
20260510094509 16 327 9.7 11.3 0.00 0.00 0.00 89 1010.8
20260510094002 16 321 9.7 12.9 0.00 0.00 0.00 88 1010.7
20260510093501 17 326 9.7 12.9 0.00 0.00 0.00 88 1010.7
20260510093100 17 321 9.7 12.9 0.00 0.00 0.00 88 1010.7
20260510092600 17 325 9.7 12.9 0.00 0.00 0.00 88 1010.7
20260510092058 17 317 8.0 11.3 0.00 0.00 0.00 88 1010.6
20260510091601 17 324 6.4 9.7 0.00 0.00 0.00 88 1010.5
20260510091057 17 325 4.8 8.0 0.00 0.00 0.00 87 1010.5
20260510090557 17 331 4.8 8.0 0.00 0.00 0.00 87 1010.5
20260510090101 17 318 4.8 6.4 0.00 0.00 0.00 87 1010.5
20260510085559 17 293 3.2 8.0 0.00 0.00 0.00 86 1010.5
20260510085055 17 300 4.8 9.7 0.00 0.00 0.00 86 1010.4
20260510084558 17 306 6.4 11.3 0.00 0.00 0.00 86 1010.4
20260510084054 17 304 6.4 11.3 0.00 0.00 0.00 86 1010.2
20260510083554 17 335 6.4 11.3 0.00 0.00 0.00 86 1010.2
20260510083056 17 333 4.8 11.3 0.00 0.00 0.00 86 1010.1
20260510082552 18 329 4.8 11.3 0.00 0.00 0.00 85 1010.1
20260510082054 18 305 8.0 11.3 0.00 0.00 0.00 85 1010.1
20260510081553 18 300 8.0 9.7 0.00 0.00 0.00 85 1010.1
20260510081052 18 294 6.4 9.7 0.00 0.00 0.00 85 1010.1
20260510080552 18 294 4.8 6.4 0.00 0.00 0.00 85 1010.0
20260510080051 18 306 3.2 6.4 0.00 0.00 0.00 85 1009.9
20260510075550 18 316 3.2 8.0 0.00 0.00 0.00 84 1009.9
20260510075050 18 309 3.2 8.0 0.00 0.00 0.00 84 1009.9
20260510074551 18 311 4.8 6.4 0.00 0.00 0.00 84 1009.9
20260510074051 18 281 3.2 6.4 0.00 0.00 0.00 84 1009.9
20260510073550 18 282 3.2 8.0 0.00 0.00 0.00 84 1009.9
20260510073104 18 288 4.8 8.0 0.00 0.00 0.00 84 1009.9
20260510072549 18 319 4.8 11.3 0.00 0.00 0.00 83 1009.9
20260510072048 18 284 6.4 11.3 0.00 0.00 0.00 83 1009.8
20260510071558 18 299 6.4 9.7 0.00 0.00 0.00 84 1009.9
20260510071050 18 261 4.8 9.7 0.00 0.00 0.00 83 1009.8
20260510070549 18 290 4.8 9.7 0.00 0.00 0.00 84 1009.9
20260510070049 18 288 6.4 9.7 0.00 0.00 0.00 84 1009.9
20260510065550 18 274 4.8 8.0 0.00 0.00 0.00 85 1009.9
20260510065047 18 254 4.8 9.7 0.00 0.00 0.00 84 1009.8
20260510064555 18 258 6.4 9.7 0.00 0.00 0.00 85 1009.8
20260510064049 18 292 3.2 8.0 0.00 0.00 0.00 86 1009.9
20260510063548 18 320 3.2 8.0 0.00 0.00 0.00 86 1009.9
20260510063048 18 251 3.2 8.0 0.00 0.00 0.00 86 1009.8
20260510062547 18 220 4.8 8.0 0.00 0.00 0.00 87 1009.9
20260510062049 18 209 4.8 8.0 0.00 0.00 0.00 88 1009.9
20260510061549 17 137 1.6 3.2 0.00 0.00 0.00 87 1009.8
20260510061048 17 104 1.6 3.2 0.00 0.00 0.00 86 1009.8
20260510060544 17 92 0.0 3.2 0.00 0.00 0.00 85 1009.8
20260510060044 17 93 1.6 3.2 0.00 0.00 0.00 85 1009.9
20260510055546 17 92 0.0 3.2 0.00 0.00 0.00 85 1009.9
20260510055048 17 92 0.0 3.2 0.00 0.00 0.00 85 1009.9
20260510054543 17 91 1.6 3.2 0.00 0.00 0.00 84 1009.9
20260510054043 17 91 1.6 3.2 0.00 0.00 0.00 84 1009.8
20260510053542 17 91 1.6 3.2 0.00 0.00 0.00 84 1009.8
20260510053042 17 92 1.6 3.2 0.00 0.00 0.00 84 1009.9
20260510052542 17 92 0.0 4.8 0.00 0.00 0.00 84 1009.9
20260510052044 17 91 0.0 4.8 0.00 0.00 0.00 83 1009.9
20260510051544 17 85 0.0 4.8 0.00 0.00 0.00 83 1009.9
20260510051041 17 120 1.6 4.8 0.00 0.00 0.00 83 1009.9
20260510050542 17 111 1.6 4.8 0.00 0.00 0.00 83 1009.9
20260510050043 17 111 1.6 4.8 0.00 0.00 0.00 83 1010.0
20260510045540 17 111 1.6 4.8 0.00 0.00 0.00 83 1009.9
20260510045042 17 101 1.6 3.2 0.00 0.00 0.00 82 1010.0
20260510044548 17 101 1.6 3.2 0.00 0.00 0.00 82 1010.0
20260510044039 18 101 1.6 3.2 0.00 0.00 0.00 82 1010.0
20260510043538 18 101 0.0 3.2 0.00 0.00 0.00 82 1009.9
20260510043037 18 101 1.6 3.2 0.00 0.00 0.00 81 1009.9
20260510042537 18 101 1.6 3.2 0.00 0.00 0.00 81 1009.9
20260510042034 18 101 1.6 4.8 0.00 0.00 0.00 80 1009.9
20260510041534 18 114 1.6 4.8 0.00 0.00 0.00 79 1009.9
20260510041033 18 105 1.6 8.0 0.00 0.00 0.00 79 1009.8
20260510040532 18 123 3.2 8.0 0.00 0.00 0.00 79 1009.8
20260510040032 18 119 3.2 8.0 0.00 0.00 0.00 78 1009.8
20260510035531 19 97 3.2 6.4 0.00 0.00 0.00 78 1009.8
20260510035031 19 119 3.2 4.8 0.00 0.00 0.00 78 1009.8
20260510034535 19 146 3.2 4.8 0.00 0.00 0.00 78 1009.8
20260510034033 18 119 1.6 6.4 0.00 0.00 0.00 79 1009.7
20260510033530 18 148 3.2 6.4 0.00 0.00 0.00 79 1009.8
20260510033031 19 135 3.2 6.4 0.00 0.00 0.00 79 1009.6
20260510032534 19 138 3.2 6.4 0.00 0.00 0.00 79 1009.6
20260510032032 19 134 3.2 6.4 0.00 0.00 0.00 79 1009.6
20260510031533 19 128 3.2 8.0 0.00 0.00 0.00 79 1009.5
20260510031029 19 103 3.2 8.0 0.00 0.00 0.00 79 1009.6
20260510030529 19 117 3.2 8.0 0.00 0.00 0.00 80 1009.4
20260510030030 18 110 4.8 11.3 0.00 0.00 0.00 81 1009.3
20260510025529 18 117 6.4 11.3 0.00 0.00 0.00 83 1009.3
20260510025030 18 107 6.4 11.3 0.00 0.00 0.00 84 1009.3
20260510024529 18 109 4.8 11.3 0.00 0.00 0.00 85 1009.3
20260510024029 18 109 3.2 8.0 0.00 0.00 0.00 86 1009.3
20260510023529 18 96 3.2 8.0 0.00 0.00 0.00 86 1009.1
20260510023031 18 126 1.6 11.3 0.00 0.00 0.00 86 1009.1
20260510022530 18 108 3.2 11.3 0.00 0.00 0.00 85 1009.1
20260510022029 19 121 1.6 8.0 0.00 0.00 0.00 84 1009.1
20260510021535 19 124 1.6 11.3 0.00 0.00 0.00 83 1009.1
20260510021028 19 98 4.8 12.9 0.00 0.00 0.00 81 1009.1
20260510020528 19 80 4.8 12.9 0.00 0.00 0.00 81 1009.0
20260510020028 19 95 4.8 8.0 0.00 0.00 0.00 81 1008.9
20260510015527 20 103 3.2 9.7 0.00 0.00 0.00 80 1008.9
20260510015031 20 119 4.8 9.7 0.00 0.00 0.00 79 1008.9
20260510014527 20 109 6.4 11.3 0.00 0.00 0.00 75 1008.8
20260510014029 20 111 4.8 11.3 0.00 0.00 0.00 76 1008.8
20260510013528 20 101 6.4 11.3 0.00 0.00 0.00 74 1008.7
20260510013027 20 105 4.8 12.9 0.00 0.00 0.00 73 1008.8
20260510012526 20 118 4.8 11.3 0.00 0.00 0.00 75 1008.7
20260510012026 20 150 3.2 11.3 0.00 0.00 0.00 76 1008.7
20260510011530 20 111 4.8 11.3 0.00 0.00 0.00 76 1008.6
20260510011027 20 90 4.8 11.3 0.00 0.00 0.00 76 1008.7
20260510010526 20 120 6.4 11.3 0.00 0.00 0.00 76 1008.5
20260510010026 20 100 4.8 11.3 0.00 0.00 0.00 76 1008.4
20260510005526 20 118 3.2 8.0 0.00 0.00 0.00 76 1008.4
20260510005025 20 114 3.2 6.4 0.00 0.00 0.00 76 1008.4
20260510004526 20 126 3.2 9.7 0.00 0.00 0.00 77 1008.3
20260510004025 20 89 3.2 9.7 0.00 0.00 0.00 77 1008.3
20260510003526 20 115 3.2 8.0 0.00 0.00 0.00 76 1008.2
20260510003027 20 102 3.2 8.0 0.00 0.00 0.00 76 1008.1
20260510002525 20 98 1.6 6.4 0.00 0.00 0.00 76 1008.2
20260510002024 20 98 1.6 8.0 0.00 0.00 0.00 76 1008.1
20260510001525 20 136 1.6 8.0 0.00 0.00 0.00 76 1008.0
20260510001026 20 107 1.6 4.8 0.00 0.00 0.00 77 1008.0
20260510000525 20 113 1.6 3.2 0.00 0.00 0.00 77 1007.9
20260510000025 20 117 0.0 3.2 0.00 0.00 0.00 78 1007.9
20260509235524 20 117 0.0 3.2 0.00 0.00 0.00 79 1007.9
20260509235026 20 117 0.0 3.2 0.00 0.00 0.00 80 1007.8
20260509234532 20 122 0.0 3.2 0.00 0.00 0.00 80 1007.8
20260509234024 20 132 0.0 4.8 0.00 0.00 0.00 81 1007.7
20260509233523 20 132 0.0 4.8 0.00 0.00 0.00 82 1007.8
20260509233023 20 118 0.0 4.8 0.00 0.00 0.00 82 1007.7
20260509232523 20 131 1.6 4.8 0.00 0.00 0.00 82 1007.6
20260509232023 20 139 1.6 4.8 0.00 0.00 0.00 82 1007.7
20260509231523 20 143 1.6 4.8 0.00 0.00 0.00 81 1007.7
20260509231023 20 149 0.0 3.2 0.00 0.00 0.00 80 1007.6
20260509230523 21 149 1.6 3.2 0.00 0.00 0.00 80 1007.6
20260509230023 21 155 0.0 3.2 0.00 0.00 0.00 79 1007.7
20260509225523 21 155 1.6 3.2 0.00 0.00 0.00 79 1007.7
20260509225025 21 150 0.0 3.2 0.00 0.00 0.00 79 1007.7
20260509224525 21 151 1.6 6.4 0.00 0.00 0.00 80 1007.7
20260509224022 21 153 1.6 6.4 0.00 0.00 0.00 79 1007.7
20260509223522 21 163 1.6 4.8 0.00 0.00 0.00 79 1007.7
20260509223025 21 167 1.6 4.8 0.00 0.00 0.00 80 1007.8
20260509222524 21 171 1.6 4.8 0.00 0.00 0.00 80 1007.7
20260509222021 21 188 1.6 4.8 0.00 0.00 0.00 79 1007.7
20260509221523 21 184 1.6 4.8 0.00 0.00 0.00 80 1007.8
20260509221021 21 186 1.6 4.8 0.00 0.00 0.00 80 1007.7